This is the latest recevied weather packets stored in our database for station/object KO4LCK. If no packets are shown the sender has not sent any weather packets the latest 10 day(s).
| Time | Temp. | Humidity | Pressure | Rain* | Wind** | Luminosity | Snow |
|---|---|---|---|---|---|---|---|
| 1787847093 | 29.44° C | 66% | 1017.4 hPa | 0 mm | - | 252 W/m² | - |
| 1787846789 | 29.44° C | 67% | 1017.4 hPa | 0 mm | - | 273 W/m² | - |
| 1787846484 | 29.44° C | 68% | 1017.5 hPa | 0 mm | - | 318 W/m² | - |
| 1787846179 | 29.44° C | 69% | 1017.5 hPa | 0 mm | - | 338 W/m² | - |
| 1787845875 | 29.44° C | 69% | 1017.6 hPa | 0 mm | - | 269 W/m² | - |
| 1787845570 | 30° C | 67% | 1017.6 hPa | 0 mm | - | 239 W/m² | - |
| 1787845265 | 30° C | 65% | 1017.5 hPa | 0 mm | - | 242 W/m² | - |
| 1787844961 | 30° C | 67% | 1017.5 hPa | 0 mm | - | 242 W/m² | - |
| 1787844661 | 30° C | 67% | 1017.4 hPa | 0 mm | - | 233 W/m² | - |
| 1787844355 | 29.44° C | 67% | 1017.4 hPa | 0 mm | - | 231 W/m² | - |
| 1787844055 | 29.44° C | 66% | 1017.3 hPa | 0 mm | - | 222 W/m² | - |
| 1787843750 | 30° C | 65% | 1017.3 hPa | 0 mm | - | 224 W/m² | - |
| 1787843445 | 30° C | 64% | 1017.2 hPa | 0 mm | - | 256 W/m² | - |
| 1787843143 | 30° C | 64% | 1017.2 hPa | 0 mm | - | 294 W/m² | - |
| 1787842843 | 30° C | 62% | 1017.2 hPa | 0 mm | - | 407 W/m² | - |
| 1787842537 | 30° C | 64% | 1017.2 hPa | 0 mm | - | 462 W/m² | - |
| 1787842237 | 30° C | 64% | 1017.3 hPa | 0 mm | - | 457 W/m² | - |
| 1787841931 | 28.89° C | 68% | 1017 hPa | 0 mm | - | 577 W/m² | - |
| 1787841627 | 28.89° C | 68% | 1017 hPa | 0 mm | - | 521 W/m² | - |
| 1787841326 | 28.33° C | 69% | 1017.1 hPa | 0 mm | - | 513 W/m² | - |
| 1787841021 | 28.33° C | 68% | 1017.1 hPa | 0 mm | - | 493 W/m² | - |
| 1787840717 | 28.33° C | 70% | 1017.1 hPa | 0 mm | - | 469 W/m² | - |
| 1787840412 | 28.33° C | 69% | 1017.1 hPa | 0 mm | - | 475 W/m² | - |
| 1787840108 | 28.33° C | 69% | 1017.1 hPa | 0 mm | - | 455 W/m² | - |
| 1787839811 | 27.78° C | 69% | 1017 hPa | 0 mm | - | 440 W/m² | - |
* Rain latest hour (hover to see other rain measurements)
** Current wind speed in m/s (hover to see current wind gust speed)